EW8380 Weather Reports


time (UTC)temp
C
wind
direction
speed
KPH
gust
KPH
rain 1hr
cm
rain 24hr
cm
rain mn
cm
humidity
%
barometer
mb
20211017095116 11 253 0.0 0.0 0.00 0.00 0.00 90 1010.2
20211017094609 11 253 0.0 0.0 0.00 0.00 0.00 90 1010.3
20211017094105 11 253 0.0 1.6 0.00 0.00 0.00 91 1010.4
20211017093557 11 260 0.0 1.6 0.00 0.00 0.00 90 1010.5
20211017093053 11 256 0.0 1.6 0.00 0.00 0.00 90 1010.6
20211017092546 11 245 0.0 1.6 0.00 0.00 0.00 90 1010.6
20211017092040 11 258 0.0 1.6 0.00 0.00 0.00 90 1010.7
20211017091534 11 245 0.0 1.6 0.00 0.00 0.00 91 1010.7
20211017091028 11 266 0.0 1.6 0.00 0.00 0.00 91 1010.7
20211017090522 11 262 0.0 0.0 0.00 0.00 0.00 91 1010.7
20211017090016 11 245 0.0 0.0 0.00 0.00 0.00 91 1010.7
20211017085510 11 236 0.0 1.6 0.00 0.00 0.00 90 1010.7
20211017085004 11 236 0.0 1.6 0.00 0.00 0.00 90 1010.8
20211017084458 11 248 0.0 1.6 0.00 0.00 0.00 90 1010.8
20211017083952 11 250 0.0 1.6 0.00 0.00 0.00 91 1010.9
20211017083446 11 260 0.0 1.6 0.00 0.00 0.00 91 1010.9
20211017082941 11 246 0.0 1.6 0.00 0.00 0.00 91 1010.9
20211017082435 11 249 0.0 0.0 0.00 0.00 0.00 90 1010.9
20211017081928 11 262 0.0 0.0 0.00 0.00 0.00 90 1010.9
20211017081422 11 210 0.0 0.0 0.00 0.00 0.00 90 1010.9
20211017080916 11 177 0.0 0.0 0.00 0.00 0.00 90 1010.9
20211017080410 11 135 0.0 0.0 0.00 0.00 0.00 89 1010.9
20211017075905 11 135 0.0 0.0 0.00 0.00 0.00 89 1010.9
20211017075359 11 135 0.0 0.0 0.00 0.00 0.00 89 1011.0
20211017074852 11 135 0.0 0.0 0.00 0.00 0.00 88 1011.1
20211017074346 11 135 0.0 1.6 0.00 0.00 0.00 88 1011.1
20211017073841 12 135 0.0 1.6 0.00 0.00 0.00 88 1011.3
20211017073334 12 129 0.0 0.0 0.00 0.00 0.00 88 1011.4
20211017072831 11 165 0.0 0.0 0.00 0.00 0.00 88 1011.4
20211017072331 12 165 0.0 0.0 0.00 0.00 0.00 88 1011.5
20211017071831 12 165 0.0 1.6 0.00 0.00 0.00 88 1011.5
20211017071327 12 177 0.0 1.6 0.00 0.00 0.00 87 1011.6
20211017070826 12 118 0.0 1.6 0.00 0.00 0.00 88 1011.6
20211017070324 12 122 0.0 1.6 0.00 0.00 0.00 88 1011.7
20211017065821 12 124 0.0 1.6 0.00 0.00 0.00 89 1011.7
20211017065322 12 188 0.0 0.0 0.00 0.00 0.00 88 1011.9
20211017064821 12 250 0.0 0.0 0.00 0.00 0.00 88 1011.9
20211017064321 12 265 0.0 0.0 0.00 0.00 0.00 88 1011.7
20211017063821 12 265 0.0 0.0 0.00 0.00 0.00 88 1011.9
20211017063318 12 266 0.0 0.0 0.00 0.00 0.00 89 1011.9
20211017062818 12 266 0.0 0.0 0.00 0.00 0.00 89 1011.9
20211017062318 12 266 0.0 0.0 0.00 0.00 0.00 88 1011.9
20211017061819 12 266 0.0 0.0 0.00 0.00 0.00 88 1012.0
20211017061315 12 266 0.0 0.0 0.00 0.00 0.00 87 1012.0
20211017060818 12 266 0.0 0.0 0.00 0.00 0.00 87 1012.1
20211017060311 12 266 0.0 0.0 0.00 0.00 0.00 87 1012.1
20211017055811 12 266 0.0 0.0 0.00 0.00 0.00 87 1012.1
20211017055308 12 266 0.0 0.0 0.00 0.00 0.00 86 1012.2
20211017054808 12 266 0.0 0.0 0.00 0.00 0.00 86 1012.3
20211017054307 12 265 0.0 0.0 0.00 0.00 0.00 86 1012.3
20211017053809 12 267 0.0 0.0 0.00 0.00 0.00 86 1012.3
20211017053307 12 267 0.0 0.0 0.00 0.00 0.00 85 1012.3
20211017052806 12 267 0.0 0.0 0.00 0.00 0.00 85 1012.4
20211017052305 12 268 0.0 0.0 0.00 0.00 0.00 85 1012.4
20211017051803 12 268 0.0 0.0 0.00 0.00 0.00 85 1012.4
20211017051306 12 268 0.0 0.0 0.00 0.00 0.00 84 1012.3
20211017050805 12 267 0.0 0.0 0.00 0.00 0.00 84 1012.3
20211017050300 12 267 0.0 0.0 0.00 0.00 0.00 84 1012.3
20211017045800 12 267 0.0 0.0 0.00 0.00 0.00 84 1012.4
20211017045305 12 267 0.0 0.0 0.00 0.00 0.00 84 1012.4
20211017044800 12 267 0.0 0.0 0.00 0.00 0.00 85 1012.5
20211017044259 12 267 0.0 0.0 0.00 0.00 0.00 85 1012.5
20211017043759 12 267 0.0 0.0 0.00 0.00 0.00 84 1012.6
20211017043259 12 267 0.0 0.0 0.00 0.00 0.00 84 1012.6
20211017042801 12 267 0.0 0.0 0.00 0.00 0.00 84 1012.6
20211017042305 12 267 0.0 0.0 0.00 0.00 0.00 84 1012.6
20211017041757 12 268 0.0 0.0 0.00 0.00 0.00 83 1012.6
20211017041258 13 268 0.0 0.0 0.00 0.00 0.00 82 1012.7
20211017040757 13 267 0.0 0.0 0.00 0.00 0.00 82 1012.7
20211017040255 13 267 0.0 0.0 0.00 0.00 0.00 81 1012.7
20211017035756 13 267 0.0 0.0 0.00 0.00 0.00 80 1012.8
20211017035256 13 267 0.0 0.0 0.00 0.00 0.00 80 1012.8
20211017034755 13 268 0.0 0.0 0.00 0.00 0.00 80 1013.0
20211017034256 13 267 0.0 0.0 0.00 0.00 0.00 79 1013.0
20211017033757 13 267 0.0 0.0 0.00 0.00 0.00 79 1013.0
20211017033251 13 268 0.0 0.0 0.00 0.00 0.00 78 1013.1
20211017032752 13 267 0.0 0.0 0.00 0.00 0.00 78 1013.1
20211017032252 14 267 0.0 0.0 0.00 0.00 0.00 78 1013.2
20211017031753 14 267 0.0 0.0 0.00 0.00 0.00 78 1013.2
20211017031252 14 267 0.0 0.0 0.00 0.00 0.00 78 1013.3
20211017030751 14 267 0.0 0.0 0.00 0.00 0.00 78 1013.3
20211017030251 14 267 0.0 0.0 0.00 0.00 0.00 78 1013.3
20211017025753 14 267 0.0 0.0 0.00 0.00 0.00 77 1013.4
20211017025253 14 267 0.0 0.0 0.00 0.00 0.00 77 1013.4
20211017024749 14 268 0.0 0.0 0.00 0.00 0.00 77 1013.5
20211017024248 14 267 0.0 0.0 0.00 0.00 0.00 76 1013.5
20211017023747 14 267 0.0 0.0 0.00 0.00 0.00 76 1013.6
20211017023249 14 267 0.0 0.0 0.00 0.00 0.00 76 1013.6
20211017022748 14 267 0.0 0.0 0.00 0.00 0.00 76 1013.6
20211017022247 14 268 0.0 0.0 0.00 0.00 0.00 75 1013.7
20211017021749 15 267 0.0 0.0 0.00 0.00 0.00 74 1013.6
20211017021247 15 267 0.0 0.0 0.00 0.00 0.00 73 1013.6
20211017020749 15 267 0.0 0.0 0.00 0.00 0.00 73 1013.6
20211017020245 15 267 0.0 0.0 0.00 0.00 0.00 72 1013.7
20211017015744 15 268 0.0 0.0 0.00 0.00 0.00 73 1013.7
20211017015243 15 267 0.0 0.0 0.00 0.00 0.00 72 1013.7
20211017014743 15 267 0.0 0.0 0.00 0.00 0.00 72 1013.8
20211017014244 15 267 0.0 0.0 0.00 0.00 0.00 71 1013.8
20211017013744 15 267 0.0 0.0 0.00 0.00 0.00 71 1013.9
20211017013244 15 267 0.0 0.0 0.00 0.00 0.00 70 1013.9
20211017012743 15 267 0.0 0.0 0.00 0.00 0.00 70 1013.8
20211017012245 16 256 0.0 0.0 0.00 0.00 0.00 70 1013.9
20211017011743 16 256 0.0 0.0 0.00 0.00 0.00 69 1013.9
20211017011246 16 256 0.0 0.0 0.00 0.00 0.00 68 1013.9
20211017010744 16 256 0.0 0.0 0.00 0.00 0.00 66 1014.0
20211017010243 16 256 0.0 0.0 0.00 0.00 0.00 65 1014.0
20211017005744 17 256 0.0 0.0 0.00 0.00 0.00 64 1014.0
20211017005243 17 246 0.0 1.6 0.00 0.00 0.00 63 1014.1
20211017004746 17 256 0.0 1.6 0.00 0.00 0.00 63 1014.1
20211017004245 17 263 0.0 1.6 0.00 0.00 0.00 62 1014.3
20211017003745 17 229 0.0 0.0 0.00 0.00 0.00 61 1014.3
20211017003247 17 200 0.0 1.6 0.00 0.00 0.00 61 1014.3
20211017002745 18 226 0.0 1.6 0.00 0.00 0.00 59 1014.3
20211017002243 18 229 0.0 1.6 0.00 0.00 0.00 59 1014.4
20211017001745 18 201 0.0 3.2 0.00 0.00 0.00 59 1014.4
20211017001243 18 225 0.0 3.2 0.00 0.00 0.00 58 1014.5
20211017000745 18 219 0.0 4.8 0.00 0.00 0.00 58 1014.5
20211017000243 18 218 0.0 4.8 0.00 0.00 0.00 57 1014.5
20211016235746 18 214 0.0 3.2 0.00 0.00 0.00 57 1014.5
20211016235239 18 205 0.0 3.2 0.00 0.00 0.00 57 1014.6
20211016234741 18 158 0.0 4.8 0.00 0.00 0.00 57 1014.7
20211016234242 18 249 0.0 4.8 0.00 0.00 0.00 55 1014.7
20211016233741 18 225 0.0 3.2 0.00 0.00 0.00 56 1014.7
20211016233242 18 240 1.6 6.4 0.00 0.00 0.00 57 1014.9
20211016232742 18 263 3.2 9.7 0.00 0.00 0.00 56 1014.9
20211016232240 18 221 1.6 9.7 0.00 0.00 0.00 55 1015.0
20211016231744 18 222 1.6 6.4 0.00 0.00 0.00 57 1015.1
20211016231242 18 214 1.6 6.4 0.00 0.00 0.00 57 1015.1
20211016230736 18 145 0.0 6.4 0.00 0.00 0.00 59 1015.2
20211016230236 18 244 1.6 6.4 0.00 0.00 0.00 58 1015.3
20211016225737 18 219 3.2 9.7 0.00 0.00 0.00 60 1015.3
20211016225235 18 264 3.2 9.7 0.00 0.00 0.00 59 1015.4
20211016224735 18 245 1.6 9.7 0.00 0.00 0.00 59 1015.5
20211016224235 18 218 1.6 6.4 0.00 0.00 0.00 60 1015.5
20211016223736 18 249 1.6 8.0 0.00 0.00 0.00 60 1015.6
20211016223237 18 211 3.2 8.0 0.00 0.00 0.00 62 1015.6
20211016222737 18 171 1.6 8.0 0.00 0.00 0.00 61 1015.6
20211016222232 18 130 1.6 11.3 0.00 0.00 0.00 61 1015.7
20211016221734 18 226 1.6 11.3 0.00 0.00 0.00 61 1015.8
20211016221231 18 215 1.6 8.0 0.00 0.00 0.00 61 1015.9
20211016220733 18 215 1.6 6.4 0.00 0.00 0.00 61 1016.0
20211016220234 18 163 1.6 9.7 0.00 0.00 0.00 64 1016.0
20211016215731 18 249 1.6 9.7 0.00 0.00 0.00 62 1016.1
20211016215233 18 134 0.0 4.8 0.00 0.00 0.00 64 1016.2
20211016214732 18 195 0.0 4.8 0.00 0.00 0.00 66 1016.3
20211016214234 17 172 0.0 6.4 0.00 0.00 0.00 67 1016.4
20211016213728 17 280 1.6 9.7 0.00 0.00 0.00 66 1016.7
20211016213229 17 188 1.6 9.7 0.00 0.00 0.00 66 1016.7
20211016212728 17 253 0.0 9.7 0.00 0.00 0.00 66 1016.8
20211016212229 17 264 1.6 6.4 0.00 0.00 0.00 67 1016.9
20211016211727 17 135 1.6 6.4 0.00 0.00 0.00 67 1017.0
20211016211227 17 245 1.6 6.4 0.00 0.00 0.00 66 1017.0
20211016210729 16 217 1.6 9.7 0.00 0.00 0.00 67 1017.2
20211016210227 16 233 3.2 9.7 0.00 0.00 0.00 67 1017.3
20211016205730 17 238 3.2 12.9 0.00 0.00 0.00 67 1017.4
20211016205225 17 238 3.2 12.9 0.00 0.00 0.00 66 1017.5
20211016204725 17 229 1.6 6.4 0.00 0.00 0.00 67 1017.5
20211016204224 17 123 1.6 6.4 0.00 0.00 0.00 66 1017.6
20211016203726 17 214 1.6 8.0 0.00 0.00 0.00 66 1017.7
20211016203224 17 146 0.0 8.0 0.00 0.00 0.00 68 1017.8
20211016202723 16 248 1.6 9.7 0.00 0.00 0.00 68 1017.8
20211016202225 16 239 1.6 9.7 0.00 0.00 0.00 67 1017.9
20211016201723 16 177 0.0 4.8 0.00 0.00 0.00 68 1018.0
20211016201225 16 204 1.6 6.4 0.00 0.00 0.00 68 1018.1
20211016200719 16 214 1.6 11.3 0.00 0.00 0.00 66 1018.2
20211016200219 16 176 1.6 11.3 0.00 0.00 0.00 67 1018.2
20211016195720 16 170 1.6 6.4 0.00 0.00 0.00 68 1018.3
20211016195222 16 155 0.0 6.4 0.00 0.00 0.00 68 1018.4
20211016194722 16 163 0.0 3.2 0.00 0.00 0.00 68 1018.3
20211016194219 16 235 0.0 4.8 0.00 0.00 0.00 69 1018.4
20211016193719 16 214 0.0 4.8 0.00 0.00 0.00 68 1018.5
20211016193219 16 236 0.0 1.6 0.00 0.00 0.00 70 1018.6
20211016192721 16 181 0.0 1.6 0.00 0.00 0.00 71 1018.7
20211016192222 16 72 0.0 1.6 0.00 0.00 0.00 71 1018.7
20211016191720 16 114 0.0 1.6 0.00 0.00 0.00 71 1018.9
20211016191220 16 211 0.0 1.6 0.00 0.00 0.00 72 1018.9
20211016190721 15 161 0.0 3.2 0.00 0.00 0.00 72 1018.9
20211016190218 15 238 0.0 3.2 0.00 0.00 0.00 74 1018.9
20211016185719 15 32 0.0 1.6 0.00 0.00 0.00 74 1019.0
20211016185219 15 165 0.0 1.6 0.00 0.00 0.00 75 1019.1
20211016184719 14 77 0.0 1.6 0.00 0.00 0.00 75 1019.2
20211016184219 15 78 0.0 1.6 0.00 0.00 0.00 76 1019.2
20211016183711 14 71 0.0 1.6 0.00 0.00 0.00 76 1019.2
20211016183212 14 134 0.0 1.6 0.00 0.00 0.00 77 1019.2
20211016182709 14 57 0.0 1.6 0.00 0.00 0.00 76 1019.3
20211016182207 14 121 0.0 1.6 0.00 0.00 0.00 78 1019.4
20211016181709 14 49 0.0 1.6 0.00 0.00 0.00 78 1019.4
20211016181208 14 108 0.0 0.0 0.00 0.00 0.00 76 1019.4
20211016180707 14 214 0.0 0.0 0.00 0.00 0.00 75 1019.4
20211016180205 14 112 0.0 0.0 0.00 0.00 0.00 76 1019.5
20211016175706 14 173 0.0 0.0 0.00 0.00 0.00 76 1019.5
20211016175205 14 194 0.0 0.0 0.00 0.00 0.00 77 1019.6
20211016174707 13 249 0.0 0.0 0.00 0.00 0.00 77 1019.6
20211016174208 13 115 0.0 1.6 0.00 0.00 0.00 77 1019.6
20211016173707 13 103 0.0 1.6 0.00 0.00 0.00 79 1019.6
20211016173207 13 102 0.0 1.6 0.00 0.00 0.00 79 1019.6
20211016172705 13 164 0.0 0.0 0.00 0.00 0.00 80 1019.7
20211016172206 13 111 0.0 1.6 0.00 0.00 0.00 79 1019.7
20211016171708 13 108 0.0 1.6 0.00 0.00 0.00 78 1019.7
20211016171207 13 254 0.0 0.0 0.00 0.00 0.00 78 1019.7
20211016170703 13 207 0.0 0.0 0.00 0.00 0.00 80 1019.6
20211016170203 12 140 0.0 0.0 0.00 0.00 0.00 82 1019.7
20211016165703 12 252 0.0 0.0 0.00 0.00 0.00 83 1019.7
20211016165203 12 214 0.0 0.0 0.00 0.00 0.00 83 1019.7
20211016164702 12 239 0.0 0.0 0.00 0.00 0.00 83 1019.7
20211016164159 12 228 0.0 0.0 0.00 0.00 0.00 85 1019.7